Simultaneous Nadir Overpasses (SNOs) Predictions

Prediction of SNOs between GOES-16 and TERRA Satellite Orbit:

Table of predicted SNOs for the next 14.0 days since TLE Epoch: 2/9/2019
Index Date Time (GOES-16) GOES-16 Lat,Lon TERRA Lat,Lon Distance(km) Time Diff (sec)
1 02/10/2019 15:20:38 0.02, -75.20 -0.60, -72.29 330.82 80
2 02/11/2019 03:42:01 -0.02, -75.19 -0.53, -77.48 260.28 80
3 02/13/2019 03:27:12 -0.01, -75.20 0.15, -74.53 76.84 80
4 02/15/2019 03:15:01 -0.00, -75.22 0.76, -71.58 413.82 80
5 02/15/2019 15:36:16 -0.00, -75.23 0.31, -76.74 171.38 80
6 02/17/2019 15:26:45 -0.00, -75.25 -0.30, -73.78 166.14 80
7 02/18/2019 03:48:10 0.00, -75.24 -0.78, -78.98 424.66 80
8 02/20/2019 03:35:59 -0.00, -75.27 -0.18, -76.02 86.47 80
9 02/22/2019 03:21:09 0.00, -75.30 0.47, -73.08 252.52 80
10 02/22/2019 15:42:25 -0.00, -75.31 0.61, -78.24 332.21 80




NCC Satellite Simultaneous Nadir Overpasses (SNOs) Prediction Service
